Regional Weather Roundup
Issued by NWS

Home | Current Version | Previous Version | Graphics & Text | Print | Product List | Glossary On
Versions: 1 2 3 4 5 6 7 8 9 10 11 12 13 14 15 16 17 18 19 20 21 22 23 24 25 26 27 28 29 30 31 32 33 34 35 36 37 38 39 40 41 42 43 44 45 46 47 48 49 50
000
ASUS43 KMKX 140821
RWRWI

WISCONSIN REGIONAL WEATHER ROUNDUP
NATIONAL WEATHER SERVICE MILWAUKEE/SULLIVAN WI
200 AM CST SUN FEB 14 2016

NOTE: "FAIR" INDICATES FEW OR NO CLOUDS BELOW 12,000 FEET WITH NO
SIGNIFICANT WEATHER AND/OR OBSTRUCTIONS TO VISIBILITY.

WIZ001-002-006>008-014>016-023>028-140900-
NORTHWEST WISCONSIN

CITY           SKY/WX    TMP DP  RH WIND       PRES   REMARKS
SUPERIOR ARPT  CLOUDY   -11 -15  83 CALM      30.31F
ASHLAND        CLOUDY   -17 -20  86 CALM      30.32F
HAYWARD        CLOUDY   -13 -18  78 CALM      30.27F
SIREN          CLOUDY    -9 -16  72 SE3       30.28F
CUMBERLAND     CLOUDY    -6 -15  65 SE6       30.26F WCI -18
RICE LAKE      CLOUDY    -4 -14  61 SE7       30.30F WCI -17
CHETEK         CLOUDY    -7 -15  68 SE3       30.31F
LADYSMITH      CLOUDY   -10 -17  70 SE6       30.32F WCI -23
EAU CLAIRE     PTCLDY    -6 -13  71 CALM      30.32F
MENOMONIE      CLOUDY    -2 -13  61 E3        30.32S
NEW RICHMOND   CLOUDY     4  -8  55 SE7       30.26F WCI  -8
OSCEOLA        CLOUDY     6  -6  56 SE9       30.30F WCI  -8
$$

WIZ003>005-009-010-017-018-140900-
NORTH CENTRAL WISCONSIN

CITY           SKY/WX    TMP DP  RH WIND       PRES   REMARKS
MANITOWISH WTR CLOUDY   -21 -27  76 CALM      30.27F
ARBOR VITAE    CLOUDY   -13 -19  75 CALM      30.27F
WOODRUFF       CLOUDY   -13 -19  75 CALM      30.27F
RHINELANDER    CLOUDY   -15 -21  74 CALM      30.29F
EAGLE RIVER    CLOUDY   -19 -25  71 CALM      30.28F
LAND O LAKES   CLOUDY   -24 -30  73 CALM      30.29S
PHILLIPS       CLOUDY   -20 -26  74 CALM      30.27F
TOMAHAWK       CLOUDY   -21 -27  74 CALM      30.30F
MEDFORD        CLOUDY   -10 -16  74 SE3       30.28F
MERRILL        PTCLDY   -18 -23  75 CALM      30.34S
$$

WIZ029-030-035-036-043>047-140900-
CENTRAL WISCONSIN

CITY           SKY/WX    TMP DP  RH WIND       PRES   REMARKS
WAUSAU         CLOUDY   -11 -17  75 CALM      30.33F
MOSINEE        CLOUDY    -6 -13  71 CALM      30.35F
MARSHFIELD     CLOUDY    -6 -14  68 E5        30.31F WCI -17
STEVENS POINT  CLOUDY   -16 -22  76 CALM      30.37F
WAUPACA        CLOUDY    -8 -14  75 CALM      30.41F
WAUTOMA        CLOUDY   -14 -21  70 CALM      30.40F
WISC RAPIDS    CLOUDY   -10 -16  74 CALM      30.37F
CAMP DOUGLAS   CLOUDY   -12 -14  88 E3        30.36S
$$

WIZ011>013-019>022-031-037>040-048>050-140900-
NORTHEAST WISCONSIN

CITY           SKY/WX    TMP DP  RH WIND       PRES   REMARKS
ANTIGO         CLOUDY   -16 -21  78 CALM      30.31F
SHAWANO        PTCLDY    -3  -9  77 CALM      30.42S
OCONTO         PTCLDY   -11 -16  80 CALM      30.43S
STURGEON BAY   CLOUDY     0 -11  60 SW3       30.43F
GREEN BAY      PTCLDY    -7 -12  79 CALM      30.43F
MANITOWOC      CLOUDY    -2 -10  69 CALM      30.45S
APPLETON       PTCLDY     0  -8  71 E3        30.39S
CLINTONVILLE   PTCLDY    -9 -15  77 CALM      30.41S
OSHKOSH        CLOUDY    -4 -11  72 S3        30.41F
$$

WIZ032>034-041-042-053>061-140900-
SOUTHWEST WISCONSIN

CITY           SKY/WX    TMP DP  RH WIND       PRES   REMARKS
LA CROSSE      CLOUDY     6  -6  57 SE6       30.34F WCI  -4
SPARTA         CLOUDY    -8 -13  78 CALM      30.35F
VIROQUA        CLOUDY     5  -6  60 SE9       30.29F WCI  -9
BOSCOBEL       CLOUDY     6  -3  66 CALM      30.38F
PRAIRIE DU CHI CLOUDY    10  -4  54 E7        30.35F WCI  -2
PLATTEVILLE    CLOUDY    11   2  68 SE7       30.35F WCI   0
$$

WIZ056-057-062-063-064-067-068-140900-
SOUTH CENTRAL WISCONSIN

CITY           SKY/WX    TMP DP  RH WIND       PRES   REMARKS
REEDSBURG      CLOUDY    -4  -9  79 CALM      30.37F
BARABOO/DELLS  CLOUDY    -3 -11  69 CALM      30.37S
LONE ROCK      CLOUDY     3  -4  72 SE3       30.39F
MINERAL POINT  CLOUDY    10  -2  56 SE8       30.33F WCI  -1
MADISON        CLOUDY     4  -6  63 SE6       30.38F WCI  -7
MIDDLETON      CLOUDY     8  -2  64 SE5       30.38F WCI  -1
WATERTOWN      CLOUDY     0  -5  76 CALM      30.39F
MONROE         CLOUDY    10   1  67 SE7       30.36F WCI   0
JANESVILLE     CLOUDY    10   1  67 SE6       30.40S WCI   1
$$

WIZ051-052-058>065-066-070>072-140900-
SOUTHEAST WISCONSIN

CITY           SKY/WX    TMP DP  RH WIND       PRES   REMARKS
MILWAUKEE      CLOUDY     4  -5  66 CALM      30.43F
WAUKESHA       CLOUDY     0  -6  78 CALM      30.42F
MILWAUKEE/TIMM CLOUDY     3  -6  66 CALM      30.43F
RACINE         CLOUDY     2  -6  69 CALM      30.45F
BURLINGTON     CLOUDY    -2  -6  84 CALM      30.42F
KENOSHA        CLOUDY     4  -4  69 CALM      30.43F
FOND DU LAC    CLOUDY    -3 -10  72 S3        30.41F
SHEBOYGAN      CLOUDY    -3  -9  75 W3        30.44S
WEST BEND      CLEAR     -4  -9  77 CALM      30.41F
JUNEAU         PTCLDY    -2  -7  77 E6        30.41F WCI -14
$$

LSZ147-162-140900-
LAKE SUPERIOR

STATION/POSITION TIME  TEMP    WIND        PRES    WAVE
                       AIR SEA DIR/SP/G            HT/PER
                 (UTC) (F)     (DEG/KT/KT) (MB)    (FT/S)
DEVILS ISLAND    0800    7     190/  7/  9 1028.8F
SAXON HARBOR     0700  -15                 1027.8
$$

LMZ867-665-643>646-140900-
LAKE MICHIGAN

STATION/POSITION TIME  TEMP    WIND        PRES    WAVE
                       AIR SEA DIR/SP/G            HT/PER
                 (UTC) (F)     (DEG/KT/KT) (MB)    (FT/S)
CHAMBERS ISLAND  0700    0     170/  4/  5 1030.1S
SISTER BAY       0720    1        CALM       N/A
ALGOMA LAKESHORE 0711             CALM       N/A
KEWAUNEE LAKESHO 0700    1     300/  6/  7 1030.0F
SHEBOYGAN LAKESH 0800    5     250/  9/ 10 1032.9S
PORT WASHINGTON  0740    5      CALM  /  3 1031.8F
MILWAUKEE LAKESH 0710   11     310/  2/  3   N/A
KENOSHA   LAKESH 0800   10     270/  2/  3 1030.5F
$$

TC  - TEMPERATURE IN CELSIUS
VSB - VISIBILITY IN STATUTE MILES
WCI - WIND CHILL INDEX
HX  - HEAT INDEX




USA.gov is the U.S. government's official web portal to all federal, state and local government web resources and services.